This is the latest recevied weather packets stored in our database for station/object KR4ELZ. If no packets are shown the sender has not sent any weather packets the latest 10 day(s).
| Time | Temp. | Humidity | Pressure | Rain* | Wind** | Luminosity | Snow |
|---|---|---|---|---|---|---|---|
| 1777858402 | 15.56° C | 61% | 1015.9 hPa | 0 mm | - | 0 W/m² | - |
| 1777858099 | 16.11° C | 60% | 1015.8 hPa | 0 mm | - | 0 W/m² | - |
| 1777857797 | 16.11° C | 58% | 1015.7 hPa | 0 mm | - | 0 W/m² | - |
| 1777857494 | 16.11° C | 55% | 1015.8 hPa | 0 mm | - | 0 W/m² | - |
| 1777857190 | 16.67° C | 54% | 1015.9 hPa | 0 mm | - | 0 W/m² | - |
| 1777856886 | 16.67° C | 55% | 1015.9 hPa | 0 mm | - | 0 W/m² | - |
| 1777856581 | 17.22° C | 53% | 1015.6 hPa | 0 mm | - | 0 W/m² | - |
| 1777856279 | 17.22° C | 51% | 1015.6 hPa | 0 mm | - | 0 W/m² | - |
| 1777855976 | 17.22° C | 54% | 1015.7 hPa | 0 mm | - | 0 W/m² | - |
| 1777855673 | 17.78° C | 55% | 1015.6 hPa | 0 mm | - | 1 W/m² | - |
| 1777855371 | 18.33° C | 52% | 1015.5 hPa | 0 mm | - | 1 W/m² | - |
| 1777855067 | 18.89° C | 50% | 1015.4 hPa | 0 mm | - | 2 W/m² | - |
| 1777854764 | 19.44° C | 48% | 1015.6 hPa | 0 mm | - | 4 W/m² | - |
| 1777854460 | 20° C | 46% | 1015.4 hPa | 0 mm | - | 5 W/m² | - |
| 1777854157 | 20.56° C | 45% | 1015.6 hPa | 0 mm | - | 7 W/m² | - |
| 1777853855 | 21.11° C | 44% | 1015.6 hPa | 0 mm | - | 9 W/m² | - |
| 1777853552 | 21.11° C | 46% | 1015.6 hPa | 0 mm | - | 12 W/m² | - |
| 1777853248 | 22.22° C | 41% | 1015.7 hPa | 0 mm | - | 14 W/m² | - |
| 1777852945 | 22.78° C | 40% | 1015.5 hPa | 0 mm | - | 21 W/m² | - |
| 1777852644 | 22.78° C | 40% | 1015.8 hPa | 0 mm | - | 26 W/m² | - |
| 1777852341 | 22.78° C | 37% | 1015.8 hPa | 0 mm | - | 32 W/m² | - |
| 1777852038 | 22.78° C | 38% | 1015.8 hPa | 0 mm | - | 37 W/m² | - |
| 1777851736 | 22.78° C | 38% | 1015.6 hPa | 0 mm | - | 43 W/m² | - |
| 1777851433 | 23.33° C | 37% | 1015.6 hPa | 0 mm | - | 50 W/m² | - |
| 1777851129 | 23.89° C | 36% | 1015.8 hPa | 0 mm | - | 57 W/m² | - |
* Rain latest hour (hover to see other rain measurements)
** Current wind speed in m/s (hover to see current wind gust speed)